TimeEDT,TemperatureF,Dew PointF,Humidity,Sea Level PressureIn,VisibilityMPH,Wind Direction,Wind SpeedMPH,Gust SpeedMPH,PrecipitationIn,Events,Conditions,WindDirDegrees,DateUTC
12:03 AM,62.6,57.2,82,29.74,10.0,SW,9.2,-,N/A,,Overcast,220,2013-10-20 04:03:00
12:56 AM,61.0,57.0,87,29.73,10.0,SW,10.4,-,0.01,Rain,Light Rain,230,2013-10-20 04:56:00
1:56 AM,57.9,54.0,87,29.74,10.0,West,10.4,-,0.00,,Mostly Cloudy,270,2013-10-20 05:56:00
2:56 AM,55.9,48.9,77,29.75,10.0,West,8.1,-,N/A,,Clear,280,2013-10-20 06:56:00
3:56 AM,55.0,46.9,74,29.76,10.0,West,9.2,-,N/A,,Clear,280,2013-10-20 07:56:00
4:56 AM,53.1,45.0,74,29.78,10.0,West,9.2,-,N/A,,Clear,270,2013-10-20 08:56:00
5:56 AM,52.0,44.1,74,29.80,10.0,WNW,9.2,-,N/A,,Clear,290,2013-10-20 09:56:00
6:56 AM,51.1,42.1,71,29.83,10.0,WNW,5.8,16.1,N/A,,Partly Cloudy,290,2013-10-20 10:56:00
7:56 AM,52.0,39.9,63,29.86,10.0,WNW,10.4,-,N/A,,Scattered Clouds,300,2013-10-20 11:56:00
8:56 AM,54.0,39.0,57,29.89,10.0,WNW,15.0,23.0,N/A,,Scattered Clouds,300,2013-10-20 12:56:00
9:56 AM,55.9,39.0,53,29.91,10.0,WNW,13.8,21.9,N/A,,Scattered Clouds,300,2013-10-20 13:56:00
10:56 AM,57.9,37.9,47,29.92,10.0,NW,10.4,20.7,N/A,,Scattered Clouds,310,2013-10-20 14:56:00
11:56 AM,60.1,36.0,41,29.92,10.0,WNW,12.7,-,N/A,,Scattered Clouds,290,2013-10-20 15:56:00
12:56 PM,62.1,35.1,37,29.92,10.0,NW,13.8,18.4,N/A,,Scattered Clouds,310,2013-10-20 16:56:00
1:56 PM,63.0,34.0,34,29.91,10.0,NNW,12.7,19.6,N/A,,Scattered Clouds,330,2013-10-20 17:56:00
2:56 PM,63.0,35.1,35,29.92,10.0,NW,12.7,-,N/A,,Scattered Clouds,310,2013-10-20 18:56:00
3:56 PM,63.0,34.0,34,29.93,10.0,WNW,9.2,-,N/A,,Scattered Clouds,290,2013-10-20 19:56:00
4:56 PM,62.1,34.0,35,29.94,10.0,NW,12.7,-,N/A,,Partly Cloudy,310,2013-10-20 20:56:00
5:56 PM,59.0,34.0,39,29.96,10.0,NW,5.8,-,N/A,,Partly Cloudy,310,2013-10-20 21:56:00
6:56 PM,57.0,34.0,42,29.98,10.0,WSW,3.5,-,N/A,,Partly Cloudy,250,2013-10-20 22:56:00
7:56 PM,51.1,34.0,52,30.00,10.0,Calm,Calm,-,N/A,,Clear,0,2013-10-20 23:56:00
8:56 PM,51.1,36.0,56,30.01,10.0,WNW,4.6,-,N/A,,Clear,300,2013-10-21 00:56:00
9:56 PM,46.9,35.1,63,30.03,10.0,Calm,Calm,-,N/A,,Clear,0,2013-10-21 01:56:00
10:56 PM,46.9,36.0,66,30.04,10.0,West,5.8,-,N/A,,Clear,270,2013-10-21 02:56:00
11:56 PM,45.0,35.1,68,30.05,10.0,Calm,Calm,-,N/A,,Clear,0,2013-10-21 03:56:00